Weather in Merzifon

Turkey     40°52′02″N   35°27′55″E
temp.,
°C
wind,
m/s
gust,
m/s
humid.,
%
clouds,
%
prec.,
mm/h
press.,
hPa
HPBL,
m
13 april, tue
tue1300:00+3n228816 0.0 102347
03:00+2nnw119112 0.0 102316
06:00+2nw119037 0.0 102310
09:00+6ese11715 0.0 1022504
12:00+11ese115226 0.0 10211269
15:00+13nw014139 0.0 10191804
18:00+13sse124014 0.0 10171219
21:00+9s11555 0.0 101912
14 april, wed
wed1400:00+7sw11615 0.0 101912
03:00+6s116669 0.0 101912
06:00+5ssw116997 0.0 101914
09:00+10s2355100 0.0 1018488
12:00+14ssw5744100 0.0 10171689
15:00+12ssw3566100 0.0 1017971
18:00+14ssw125314 0.0 1015819
21:00+9w01745 0.0 101710
15 april, thu
thu1500:00+8sw117845 0.0 101610
03:00+8wsw118197 0.0 101610
06:00+7w0182100 0.0 101710
09:00+12se116497 0.0 1017306
12:00+18ssw263688 0.0 10152073
15:00+20w482699 0.0 10133035
18:00+16nne464825 0.0 1013307
21:00+9nne468370 0.0 1017296
16 april, fri
fri1600:00+7nnw21887 0.0 101728
03:00+6wnw1191100 0.0 101610
06:00+6w119179 0.0 101610
09:00+11ene1173100 0.0 1016383
12:00+17e245131 0.1 10151222
15:00+19nnw363777 0.1 10131926
18:00+12nne687430 0.0 1016356
21:00+8nne4781100 0.0 1020434
17 april, sat
sat1700:00+7ne3585100 0.0 1021330
03:00+6n1286100 0.0 1020110
06:00+6nnw119081 0.0 102039
09:00+9se0176100 0.0 1019379
12:00+14e1259100 0.0 1018673
15:00+15w1260100 0.0 1017506
18:00+15se2262100 0.0 1016311
21:00+13sw2272100 0.0 101720